SCP
0 0 0 0 0 0 0 0 0 0 0 0 0 0 0 0 0 0 0 0 0 0 0 0 0 0 0 0 0 0 0 0 0 0 0 0 0 0 0 0 0 0 0
0 0 0 0 0 0 0 0 0 0 0 0 0 0 0 0 0 0 0 0 0 0 0 0 0 0 0 0 0 0 0 0 0 0 0 0 0 0 0 0 0 0 0
0 0 0 0 0 0 0 0 0 0 0 0 0 0 0 0 0 0 0 0 0 0 0 0 0 0 0 0 0 0 0 0 0 0 0 0 0 0 0 0 0 0 0
0 0 0 0 0 0 0 0 0 0 0 0 0 0 0 0 0 0 0 0 0 0 0 0 0 0 0 0 0 0 0 0 0 0 0 0 0 0 0 0 0 0 0
0 0 0 0 0 0 0 0 0 0 0 0 0 0 0 0 0 0 0 0 0 0 0 0 0 0 0 0 0 0 0 0 0 0 0 0 0 0 0 0 0 0 0
0 0 0 0 0 0 0 0 0 0 0 0 0 0 0 0 0 0 0 0 0 0 0 0 0 0 0 0 0 0 0 0 0 0 0 0 0 0 0 0 0 0 0
0 0 0 0 0 0 0 0 0 0 0 0 0 0 0 0 0 0 0 0 0 0 0 0 0 0 0 0 0 0 0 0 0 0 0 0 0 0 0 0 0 0 0
0 0 0 0 0 0 0 0 0 0 0 0 0 0 0 0 0 0 0 0 0 0 0 0 0 0 0 0 0 0 0 0 0 0 0 0 0 0 0 0 0 0 0
0 0 0 0 0 0 0 0 0 0 0 0 0 0 0 0 0 0 0 0 0 0 0 0 0 0 0 0 0 0 0 0 0 0 0 0 0 0 0 0 0 0 0
0 0 0 0 0 0 0 0 0 0 0 0 0 0 0 0 0 0 0 0 0 0 0 0 0 0 0 0 0 0 0 0 0 0 0 0 0 0 0 0 0 0 0
0 0 0 0 0 0 0 0 0 0 0 0 0 0 0 0 0 0 0 0 0 0 0 0 0 0 0 0 0 0 0 0 0 0 0 0 0 0 0 0 0 0 0
0 0 0 0 0 0 0 0 0 0 0 0 0 0 0 0 0 0 0 0 0 0 0 0 0 0 0 0 0 0 0 0 0 0 0 0 0 0 0 0 0 0 0
0 0 0 0 0 0 0 0 0 0 0 0 0 0 0 0 0 0 0 0 0 0 0 0 0 0 0 0 0 0 0 0 0 0 0 0 0 0 0 0 0 0 0
0 0 0 0 0 0 0 0 0 0 0 0 0 0 0 0 0 0 0 0 0 0 0 0 0 0 0 0 0 0 0 0 0 0 0 0 0 0 0 0 0 0 0
0 0 0 0 0 0 0 0 0 0 0 0 0 0 0 0 0 0 0 0 0 0 0 0 0 0 0 0 0 0 0 0 0 0 0 0 0 0 0 0 0 0 0
0 0 0 0 0 0 0 0 0 0 0 0 0 0 0 0 0 0 0 0 0 0 0 0 0 0 0 0 0 0 0 0 0 0 0 0 0 0 0 0 0 0 0
0 0 0 0 0 0 0 0 0 0 0 0 0 0 0 0 0 0 0 0 0 0 0 0 0 0 0 0 0 0 0 0 0 0 0 0 0 0 0 0 0 0 0
0 0 0 0 0 0 0 0 0 0 0 0 0 0 0 0 0 0 0 0 0 0 0 0 0 0 0 0 0 0 0 0 0 0 0 0 0 0 0 0 0 0 0
0 0 0 0 0 0 0 0 0 0 0 0 0 0 0 0 0 0 0 0 0 0 0 0 0 0 0 0 0 0 0 0 0 0 0 0 0 0 0 0 0 0 0
0 0 0 0 0 0 0 0 0 0 0 0 0 0 0 0 0 0 0 0 0 0 0 0 0 0 0 0 0 0 0 0 0 0 0 0 0 0 0 0 0 0 0
0 0 0 0 0 0 0 0 0 0 0 0 0 0 0 0 0 0 0 0 0 0 0 0 0 0 0 0 0 0 0 0 0 0 0 0 0 0 0 0 0 0 0
0 0 0 0 0 0 0 0 0 0 0 0 0 0 0 0 0 0 0 0 0 0 0 0 0 0 0 0 0 0 0 0 0 0 0 0 0 0 0 0 0 0 0
0 0 0 0 0 0 0 0 0 0 0 0 0 0 0 0 0 0 0 0 0 0 0 0 0 0 0 0 0 0 0 0 0 0 0 0 0 0 0 0 0 0 0
0 0 0 0 0 0 0 0 0 0 0 0 0 0 0 0 0 0 0 0 0 0 0 0 0 0 0 0 0 0 0 0 0 0 0 0 0 0 0 0 0 0 0
0 0 0 0 0 0 0 0 0 0 0 0 0 0 0 0 0 0 0 0 0 0 0 0 0 0 0 0 0 0 0 0 0 0 0 0 0 0 0 0 0 0 0
0 0 0 0 0 0 0 0 0 0 0 0 0 0 0 0 0 0 0 0 0 0 0 0 0 0 0 0 0 0 0 0 0 0 0 0 0 0 0 0 0 0 0
Wind_Speed_500mb
27 21 25 21 18 17 12 8 5 4 5 9 14 23 29 29 27 27 25 21 20 16 12 19 23 19 19 18 19 20 20 22 22 22 22 24 23 24 25 25 26 27 29
34 26 28 27 23 23 20 18 15 12 13 13 13 22 34 30 34 33 31 28 27 25 21 15 20 21 21 17 16 18 18 19 19 19 18 19 19 19 20 22 22 23 25
42 34 31 32 31 30 28 25 23 24 28 24 22 24 33 34 35 34 36 37 33 32 28 24 19 22 22 20 20 17 17 17 15 16 14 14 15 14 16 17 17 19 21
46 45 45 39 40 40 39 32 29 33 31 31 30 33 37 39 39 40 41 44 41 38 36 35 27 26 26 22 19 19 18 17 15 13 11 9 10 9 10 12 13 15 18
52 56 55 50 49 53 51 48 43 42 44 41 39 39 41 42 46 49 51 51 52 50 50 46 39 34 31 29 27 23 21 19 16 12 9 8 7 6 5 7 10 13 16
63 63 64 62 59 62 63 60 57 55 52 50 48 49 48 50 52 55 56 57 59 60 59 56 52 47 42 34 32 28 25 23 21 17 14 11 9 6 4 6 8 13 16
69 67 66 70 70 71 68 72 67 66 62 62 56 57 58 60 62 61 60 63 66 69 69 67 63 59 52 47 38 33 31 27 25 22 17 16 14 12 12 12 12 14 16
76 74 73 75 75 75 77 78 83 78 74 73 71 62 52 67 72 69 70 73 74 77 79 76 72 68 64 61 53 40 36 31 28 24 23 20 18 17 16 17 17 18 18
83 83 81 83 82 79 85 79 79 92 92 82 86 72 31 42 54 73 82 81 82 83 84 83 82 78 74 70 64 57 50 40 34 30 27 24 22 21 19 20 23 18 19
86 84 83 86 84 83 80 82 86 83 99 85 89 99 93 79 47 45 64 72 88 90 90 90 89 85 82 76 74 68 61 54 47 40 34 30 26 24 23 24 24 18 19
87 86 84 86 91 91 88 83 85 89 102 97 101 100 106 102 97 79 67 68 72 80 91 95 96 93 86 82 83 74 67 59 53 45 40 35 30 26 26 28 18 19 20
80 83 86 91 93 93 95 97 97 95 93 99 103 110 109 114 117 108 104 102 93 84 90 98 100 98 98 93 87 79 71 64 56 49 44 38 33 28 27 29 21 24 21
80 77 76 83 89 94 95 97 101 100 101 105 103 115 106 119 117 119 101 99 87 86 85 93 100 103 101 97 88 84 74 66 60 53 47 42 36 30 30 25 26 29 26
74 71 69 71 78 85 90 96 99 101 103 108 111 113 116 123 110 109 126 115 95 84 86 98 90 94 100 101 93 77 77 72 64 57 50 45 37 31 37 23 30 34 32
58 58 61 63 69 75 81 87 93 99 103 108 114 114 118 111 119 120 125 121 116 77 89 95 94 92 87 97 90 85 83 74 67 60 52 46 38 39 38 25 36 38 36
48 51 54 59 64 70 75 79 86 91 96 104 108 109 112 111 110 126 121 119 115 113 84 78 75 82 77 75 85 82 82 72 69 62 54 47 41 44 38 30 43 41 40
48 52 56 61 65 68 72 77 82 84 90 91 91 101 107 105 103 109 121 120 117 115 106 93 86 76 68 65 69 80 80 79 71 65 53 48 44 45 36 40 46 44 42
59 61 64 70 75 76 75 77 78 80 83 86 84 91 101 101 104 109 114 115 117 108 104 102 97 78 66 64 68 82 78 70 72 63 55 53 48 47 41 46 47 45 47
66 69 70 75 78 81 82 81 78 78 82 82 84 87 90 92 90 95 110 113 108 106 98 94 92 77 73 61 62 62 63 76 70 59 60 53 50 50 39 47 47 48 50
75 76 78 80 80 79 79 80 79 81 83 84 84 83 83 80 85 91 100 99 103 102 98 89 87 80 65 63 70 58 74 74 69 70 64 53 58 46 43 47 50 50 47
74 78 81 81 81 81 81 78 78 80 80 83 82 82 80 76 81 85 91 95 96 95 93 85 86 81 70 70 75 65 75 75 74 73 57 63 60 45 46 46 50 46 45
71 72 73 73 74 74 76 74 72 75 77 80 82 82 78 75 79 78 86 89 87 85 87 87 89 84 76 74 65 70 83 74 74 66 70 71 54 48 40 48 46 43 46
68 69 71 71 73 70 64 64 66 71 75 80 79 80 77 73 75 75 78 79 79 75 71 78 88 83 77 70 67 80 80 78 71 65 60 58 52 43 39 46 43 43 47
71 74 74 72 71 70 63 61 61 68 76 77 76 72 71 72 70 69 68 68 69 66 64 69 68 68 57 54 65 67 61 62 58 58 54 48 45 38 39 40 39 44 45
66 65 68 72 74 71 60 58 58 66 72 75 69 66 68 69 64 61 58 58 60 59 59 58 53 51 60 54 54 58 57 51 57 60 54 46 44 39 38 35 38 41 35
78 76 71 65 67 68 66 61 54 62 70 69 66 66 63 61 55 53 51 52 56 61 64 61 58 60 51 50 51 42 39 51 54 50 47 46 38 33 22 31 30 29 40
Wind_Direction_500mb
227 231 215 214 215 207 212 210 206 217 252 250 231 206 199 203 209 207 190 189 184 178 174 158 136 136 132 126 121 117 114 110 107 104 98 96 93 85 78 72 67 61 57
234 238 229 224 222 211 210 237 247 270 269 262 238 223 222 229 224 196 198 200 195 189 194 202 168 154 145 143 137 132 126 120 116 112 106 101 94 86 80 69 64 59 53
236 239 241 242 236 226 225 230 255 266 258 243 241 232 235 242 235 222 216 220 207 199 200 196 187 170 167 157 151 151 145 141 135 129 122 108 100 87 80 73 60 49 43
239 240 238 244 244 240 239 255 257 262 266 261 249 243 235 242 242 239 238 237 234 230 218 212 200 189 187 173 177 173 171 163 159 159 152 134 115 98 88 74 59 41 29
246 238 241 243 245 244 243 242 243 252 254 251 244 241 242 245 246 243 243 242 241 241 244 252 251 237 228 198 189 191 188 184 191 199 198 189 163 135 97 59 38 31 16
253 244 242 243 246 246 246 248 247 248 247 244 239 236 238 243 244 246 247 246 240 245 248 250 252 251 250 222 203 197 200 202 211 218 223 225 229 239 283 332 6 7 1
256 252 252 249 248 249 253 250 247 246 243 240 236 238 239 240 242 243 245 248 247 244 246 247 249 251 247 238 213 208 208 210 215 223 233 240 251 267 281 298 322 340 345
254 254 254 256 254 253 257 252 250 247 241 242 232 235 238 242 244 245 244 244 245 245 245 244 245 245 246 246 236 217 214 214 220 226 238 245 255 264 277 294 307 317 336
253 255 256 256 258 256 254 257 260 249 246 249 238 235 222 237 251 249 248 248 246 246 246 245 245 244 243 244 241 238 231 220 222 236 247 250 255 263 275 288 295 313 330
256 257 258 257 259 259 257 261 258 258 256 250 245 237 239 247 242 251 255 252 251 248 248 247 244 244 243 239 239 240 242 241 241 245 248 249 253 264 273 281 289 311 320
258 256 255 257 259 260 258 260 260 260 257 254 257 253 246 243 246 249 254 257 252 256 253 248 248 243 242 240 240 239 241 242 242 242 244 248 252 258 267 274 287 308 317
263 258 259 259 260 262 263 264 265 263 263 261 259 263 255 253 251 247 251 256 256 262 261 253 248 243 241 237 239 239 240 239 240 238 242 245 250 254 263 269 280 292 312
270 269 264 259 260 263 265 267 267 266 267 261 264 267 262 263 259 261 255 256 257 260 259 256 253 252 246 241 233 236 237 237 237 237 239 242 245 251 261 263 276 288 304
273 273 270 265 261 260 261 261 264 265 267 264 265 264 264 269 256 270 260 259 258 262 258 258 260 253 250 244 234 232 235 234 234 236 237 240 242 250 258 258 276 288 297
269 270 268 265 263 261 260 261 261 261 262 263 265 264 261 266 264 270 262 264 264 255 260 263 258 260 255 245 232 226 230 230 232 234 237 239 241 257 257 261 279 283 294
277 275 273 270 266 264 262 261 261 262 262 263 264 263 263 261 269 268 269 263 263 259 255 265 268 263 258 249 235 228 227 229 230 232 234 237 249 254 260 267 274 283 289
290 286 281 278 273 270 267 265 264 265 265 265 265 263 264 266 265 267 271 269 266 261 257 261 263 260 248 242 229 223 223 227 229 230 232 241 248 252 257 269 273 280 288
293 290 286 282 279 276 272 269 268 267 267 269 269 267 265 265 265 267 268 268 269 268 263 254 259 251 235 224 223 222 227 219 225 227 234 241 246 251 259 264 273 279 286
289 286 286 284 283 281 280 278 275 272 270 269 270 269 269 268 267 264 266 269 268 265 261 256 251 236 234 229 222 218 219 223 223 224 234 242 244 251 256 268 274 279 287
287 287 286 286 284 281 277 277 275 272 272 271 271 271 270 268 268 268 270 269 266 264 264 255 245 239 230 226 219 212 213 215 218 224 231 238 243 243 254 264 270 280 285
288 288 288 288 285 280 276 274 274 273 272 272 273 272 271 269 270 269 270 271 270 268 261 249 239 230 226 214 210 208 209 212 218 224 232 234 245 241 251 259 273 277 285
292 289 288 288 286 283 281 277 272 271 271 271 271 271 271 268 270 268 269 272 272 267 259 249 233 227 221 211 207 205 208 208 216 225 232 241 236 242 250 265 272 274 285
301 297 293 290 287 284 280 275 271 268 267 268 269 272 272 267 269 270 271 272 271 267 263 255 242 231 216 210 199 210 213 216 225 230 236 238 234 241 253 263 265 276 286
311 306 300 294 290 287 282 276 273 270 268 268 270 270 270 266 266 268 270 268 264 256 245 239 244 228 207 206 224 224 218 221 230 240 235 233 241 246 254 257 264 277 290
312 310 307 303 296 289 280 273 269 269 271 275 273 270 269 270 269 267 266 261 253 245 238 234 214 204 208 228 224 214 217 220 227 228 230 238 246 252 256 258 268 278 281
306 304 300 299 295 292 287 278 270 272 274 275 276 275 274 272 268 266 264 258 243 234 219 208 204 207 226 221 215 217 232 224 227 226 234 232 247 254 258 262 258 271 287
Wind_Speed_850mb
27 21 25 21 18 17 12 8 5 4 5 9 14 23 29 29 27 27 25 21 20 16 12 19 23 19 19 18 19 20 20 22 22 22 22 24 23 24 25 25 26 27 29
34 26 28 27 23 23 20 18 15 12 13 13 13 22 34 30 34 33 31 28 27 25 21 15 20 21 21 17 16 18 18 19 19 19 18 19 19 19 20 22 22 23 25
42 34 31 32 31 30 28 25 23 24 28 24 22 24 33 34 35 34 36 37 33 32 28 24 19 22 22 20 20 17 17 17 15 16 14 14 15 14 16 17 17 19 21
46 45 45 39 40 40 39 32 29 33 31 31 30 33 37 39 39 40 41 44 41 38 36 35 27 26 26 22 19 19 18 17 15 13 11 9 10 9 10 12 13 15 18
52 56 55 50 49 53 51 48 43 42 44 41 39 39 41 42 46 49 51 51 52 50 50 46 39 34 31 29 27 23 21 19 16 12 9 8 7 6 5 7 10 13 16
63 63 64 62 59 62 63 60 57 55 52 50 48 49 48 50 52 55 56 57 59 60 59 56 52 47 42 34 32 28 25 23 21 17 14 11 9 6 4 6 8 13 16
69 67 66 70 70 71 68 72 67 66 62 62 56 57 58 60 62 61 60 63 66 69 69 67 63 59 52 47 38 33 31 27 25 22 17 16 14 12 12 12 12 14 16
76 74 73 75 75 75 77 78 83 78 74 73 71 62 52 67 72 69 70 73 74 77 79 76 72 68 64 61 53 40 36 31 28 24 23 20 18 17 16 17 17 18 18
83 83 81 83 82 79 85 79 79 92 92 82 86 72 31 42 54 73 82 81 82 83 84 83 82 78 74 70 64 57 50 40 34 30 27 24 22 21 19 20 23 18 19
86 84 83 86 84 83 80 82 86 83 99 85 89 99 93 79 47 45 64 72 88 90 90 90 89 85 82 76 74 68 61 54 47 40 34 30 26 24 23 24 24 18 19
87 86 84 86 91 91 88 83 85 89 102 97 101 100 106 102 97 79 67 68 72 80 91 95 96 93 86 82 83 74 67 59 53 45 40 35 30 26 26 28 18 19 20
80 83 86 91 93 93 95 97 97 95 93 99 103 110 109 114 117 108 104 102 93 84 90 98 100 98 98 93 87 79 71 64 56 49 44 38 33 28 27 29 21 24 21
80 77 76 83 89 94 95 97 101 100 101 105 103 115 106 119 117 119 101 99 87 86 85 93 100 103 101 97 88 84 74 66 60 53 47 42 36 30 30 25 26 29 26
74 71 69 71 78 85 90 96 99 101 103 108 111 113 116 123 110 109 126 115 95 84 86 98 90 94 100 101 93 77 77 72 64 57 50 45 37 31 37 23 30 34 32
58 58 61 63 69 75 81 87 93 99 103 108 114 114 118 111 119 120 125 121 116 77 89 95 94 92 87 97 90 85 83 74 67 60 52 46 38 39 38 25 36 38 36
48 51 54 59 64 70 75 79 86 91 96 104 108 109 112 111 110 126 121 119 115 113 84 78 75 82 77 75 85 82 82 72 69 62 54 47 41 44 38 30 43 41 40
48 52 56 61 65 68 72 77 82 84 90 91 91 101 107 105 103 109 121 120 117 115 106 93 86 76 68 65 69 80 80 79 71 65 53 48 44 45 36 40 46 44 42
59 61 64 70 75 76 75 77 78 80 83 86 84 91 101 101 104 109 114 115 117 108 104 102 97 78 66 64 68 82 78 70 72 63 55 53 48 47 41 46 47 45 47
66 69 70 75 78 81 82 81 78 78 82 82 84 87 90 92 90 95 110 113 108 106 98 94 92 77 73 61 62 62 63 76 70 59 60 53 50 50 39 47 47 48 50
75 76 78 80 80 79 79 80 79 81 83 84 84 83 83 80 85 91 100 99 103 102 98 89 87 80 65 63 70 58 74 74 69 70 64 53 58 46 43 47 50 50 47
74 78 81 81 81 81 81 78 78 80 80 83 82 82 80 76 81 85 91 95 96 95 93 85 86 81 70 70 75 65 75 75 74 73 57 63 60 45 46 46 50 46 45
71 72 73 73 74 74 76 74 72 75 77 80 82 82 78 75 79 78 86 89 87 85 87 87 89 84 76 74 65 70 83 74 74 66 70 71 54 48 40 48 46 43 46
68 69 71 71 73 70 64 64 66 71 75 80 79 80 77 73 75 75 78 79 79 75 71 78 88 83 77 70 67 80 80 78 71 65 60 58 52 43 39 46 43 43 47
71 74 74 72 71 70 63 61 61 68 76 77 76 72 71 72 70 69 68 68 69 66 64 69 68 68 57 54 65 67 61 62 58 58 54 48 45 38 39 40 39 44 45
66 65 68 72 74 71 60 58 58 66 72 75 69 66 68 69 64 61 58 58 60 59 59 58 53 51 60 54 54 58 57 51 57 60 54 46 44 39 38 35 38 41 35
78 76 71 65 67 68 66 61 54 62 70 69 66 66 63 61 55 53 51 52 56 61 64 61 58 60 51 50 51 42 39 51 54 50 47 46 38 33 22 31 30 29 40
Wind_Direction_850mb
227 231 215 214 215 207 212 210 206 217 252 250 231 206 199 203 209 207 190 189 184 178 174 158 136 136 132 126 121 117 114 110 107 104 98 96 93 85 78 72 67 61 57
234 238 229 224 222 211 210 237 247 270 269 262 238 223 222 229 224 196 198 200 195 189 194 202 168 154 145 143 137 132 126 120 116 112 106 101 94 86 80 69 64 59 53
236 239 241 242 236 226 225 230 255 266 258 243 241 232 235 242 235 222 216 220 207 199 200 196 187 170 167 157 151 151 145 141 135 129 122 108 100 87 80 73 60 49 43
239 240 238 244 244 240 239 255 257 262 266 261 249 243 235 242 242 239 238 237 234 230 218 212 200 189 187 173 177 173 171 163 159 159 152 134 115 98 88 74 59 41 29
246 238 241 243 245 244 243 242 243 252 254 251 244 241 242 245 246 243 243 242 241 241 244 252 251 237 228 198 189 191 188 184 191 199 198 189 163 135 97 59 38 31 16
253 244 242 243 246 246 246 248 247 248 247 244 239 236 238 243 244 246 247 246 240 245 248 250 252 251 250 222 203 197 200 202 211 218 223 225 229 239 283 332 6 7 1
256 252 252 249 248 249 253 250 247 246 243 240 236 238 239 240 242 243 245 248 247 244 246 247 249 251 247 238 213 208 208 210 215 223 233 240 251 267 281 298 322 340 345
254 254 254 256 254 253 257 252 250 247 241 242 232 235 238 242 244 245 244 244 245 245 245 244 245 245 246 246 236 217 214 214 220 226 238 245 255 264 277 294 307 317 336
253 255 256 256 258 256 254 257 260 249 246 249 238 235 222 237 251 249 248 248 246 246 246 245 245 244 243 244 241 238 231 220 222 236 247 250 255 263 275 288 295 313 330
256 257 258 257 259 259 257 261 258 258 256 250 245 237 239 247 242 251 255 252 251 248 248 247 244 244 243 239 239 240 242 241 241 245 248 249 253 264 273 281 289 311 320
258 256 255 257 259 260 258 260 260 260 257 254 257 253 246 243 246 249 254 257 252 256 253 248 248 243 242 240 240 239 241 242 242 242 244 248 252 258 267 274 287 308 317
263 258 259 259 260 262 263 264 265 263 263 261 259 263 255 253 251 247 251 256 256 262 261 253 248 243 241 237 239 239 240 239 240 238 242 245 250 254 263 269 280 292 312
270 269 264 259 260 263 265 267 267 266 267 261 264 267 262 263 259 261 255 256 257 260 259 256 253 252 246 241 233 236 237 237 237 237 239 242 245 251 261 263 276 288 304
273 273 270 265 261 260 261 261 264 265 267 264 265 264 264 269 256 270 260 259 258 262 258 258 260 253 250 244 234 232 235 234 234 236 237 240 242 250 258 258 276 288 297
269 270 268 265 263 261 260 261 261 261 262 263 265 264 261 266 264 270 262 264 264 255 260 263 258 260 255 245 232 226 230 230 232 234 237 239 241 257 257 261 279 283 294
277 275 273 270 266 264 262 261 261 262 262 263 264 263 263 261 269 268 269 263 263 259 255 265 268 263 258 249 235 228 227 229 230 232 234 237 249 254 260 267 274 283 289
290 286 281 278 273 270 267 265 264 265 265 265 265 263 264 266 265 267 271 269 266 261 257 261 263 260 248 242 229 223 223 227 229 230 232 241 248 252 257 269 273 280 288
293 290 286 282 279 276 272 269 268 267 267 269 269 267 265 265 265 267 268 268 269 268 263 254 259 251 235 224 223 222 227 219 225 227 234 241 246 251 259 264 273 279 286
289 286 286 284 283 281 280 278 275 272 270 269 270 269 269 268 267 264 266 269 268 265 261 256 251 236 234 229 222 218 219 223 223 224 234 242 244 251 256 268 274 279 287
287 287 286 286 284 281 277 277 275 272 272 271 271 271 270 268 268 268 270 269 266 264 264 255 245 239 230 226 219 212 213 215 218 224 231 238 243 243 254 264 270 280 285
288 288 288 288 285 280 276 274 274 273 272 272 273 272 271 269 270 269 270 271 270 268 261 249 239 230 226 214 210 208 209 212 218 224 232 234 245 241 251 259 273 277 285
292 289 288 288 286 283 281 277 272 271 271 271 271 271 271 268 270 268 269 272 272 267 259 249 233 227 221 211 207 205 208 208 216 225 232 241 236 242 250 265 272 274 285
301 297 293 290 287 284 280 275 271 268 267 268 269 272 272 267 269 270 271 272 271 267 263 255 242 231 216 210 199 210 213 216 225 230 236 238 234 241 253 263 265 276 286
311 306 300 294 290 287 282 276 273 270 268 268 270 270 270 266 266 268 270 268 264 256 245 239 244 228 207 206 224 224 218 221 230 240 235 233 241 246 254 257 264 277 290
312 310 307 303 296 289 280 273 269 269 271 275 273 270 269 270 269 267 266 261 253 245 238 234 214 204 208 228 224 214 217 220 227 228 230 238 246 252 256 258 268 278 281
306 304 300 299 295 292 287 278 270 272 274 275 276 275 274 272 268 266 264 258 243 234 219 208 204 207 226 221 215 217 232 224 227 226 234 232 247 254 258 262 258 271 287